Regional Weather Roundup
Issued by NWS Raleigh/Durham, NC

Home | Current Version | Previous Version | Text Only | Print | Product List | Glossary On
Versions: 1 2 3 4 5 6 7 8 9 10 11 12 13 14 15 16 17 18 19 20 21 22 23 24 25 26 27
000
ASUS42 KRAH 230810
RWRRAH
NORTH CAROLINA WEATHER ROUNDUP
NATIONAL WEATHER SERVICE RALEIGH NC
400 AM EDT SUN APR 23 2017

NOTE: "FAIR" INDICATES FEW OR NO CLOUDS BELOW 12,000 FEET WITH NO
SIGNIFICANT WEATHER AND/OR OBSTRUCTIONS TO VISIBILITY.

NCZ001-053-055-056-065-067-230900-
WESTERN NORTH CAROLINA

CITY           SKY/WX    TMP DP  RH WIND       PRES   REMARKS
ASHEVILLE      NOT AVBL
JEFFERSON      FOG       46  46  99 CALM      29.97R VSB 1/4
MORGANTON      DRIZZLE   53  53  99 E7        29.99S
HICKORY        CLOUDY    53  52  96 NE10      29.94
RUTHERFORDTON  LGT RAIN  57  57 100 E10       29.92F
MOUNT AIRY     DRIZZLE   51  49  92 N8        30.01R
BOONE          NOT AVBL
$$

NCZ021-022-025-041-071-084-088-230900-
CENTRAL NORTH CAROLINA

CITY           SKY/WX    TMP DP  RH WIND       PRES   REMARKS
CHARLOTTE      CLOUDY    57  52  83 NE10      29.92
GREENSBORO     CLOUDY    50  50 100 NE10      29.96F
WINSTON-SALEM  LGT RAIN  51  48  89 NE9       29.97R
RALEIGH-DURHAM CLOUDY    55  53  93 NE12      29.97F
FORT BRAGG     CLOUDY    57  55  94 N6        29.93S
FAYETTEVILLE   CLOUDY    61  58  90 NE12      29.92F
BURLINGTON     CLOUDY    53  51  93 N5        29.98S
LAURINBURG     CLOUDY    61  58  90 NE15      29.92S
$$

NCZ011-015-027-028-043-044-047-080-103-230900-
NORTHEASTERN NORTH CAROLINA

CITY           SKY/WX    TMP DP  RH WIND       PRES   REMARKS
ROCKY MT-WILSO LGT RAIN  56  55  97 N9        29.97F
GREENVILLE     CLOUDY    55  54  94 NE10      29.99R
WASHINGTON     LGT RAIN  55  54  97 N7        29.97R
ELIZABETH CITY LGT RAIN  55  54  96 N14       29.97R
MANTEO         CLOUDY    55  53  93 NE17G24   29.95R
CAPE HATTERAS  CLOUDY    62  59  90 N10       29.91R
$$

NCZ078-087-090-091-093-098-101-230900-
SOUTHEASTERN NORTH CAROLINA

CITY           SKY/WX    TMP DP  RH WIND       PRES   REMARKS
LUMBERTON      CLOUDY    62  60  93 NE14G21   29.90S
GOLDSBORO      CLOUDY    57  57 100 NE12      29.94R
KINSTON        CLOUDY    57  55  95 N12G20    29.96R
KENANSVILLE    CLOUDY    59  55  88 N6        29.94R
NEW BERN       CLOUDY    59  58  96 N7        29.94S
CHERRY POINT   NOT AVBL
BEAUFORT       CLOUDY    62  62 100 N7        29.91R
JACKSONVILLE   CLOUDY    62  60  93 NE12      29.91R
WILMINGTON     CLOUDY    69  66  90 N3        29.89S
$$





USA.gov is the U.S. government's official web portal to all federal, state and local government web resources and services.